Regional Weather Roundup
Issued by NWS Sterling, VA

Home | Current Version | Previous Version | Graphics & Text | Print | Product List | Glossary On
Versions: 1 2 3 4 5 6 7 8 9 10 11 12 13 14 15 16 17 18 19 20 21 22 23 24 25 26 27 28 29 30 31 32 33 34 35 36 37 38 39 40 41 42 43 44 45 46 47 48 49 50
000
ASUS41 KLWX 281410
RWRLWX

REGIONAL WEATHER ROUNDUP
NATIONAL WEATHER SERVICE BALTIMORE MD/WASHINGTON DC
1000 AM EDT THU AUG 28 2014

Note: "FAIR" indicates few or no clouds below 12,000 feet
with no significant weather and/or obstructions to visibility.
 TC=TEMPERATURE CELSIUS

 * =Non NWS site. Station does not report precipitation (e.g. rain,
    snow, etc.), thunder, or fog.

DCZ001-MDZ009-015-VAZ040>042-051-053>054-281500-
WASHINGTON METRO
  /KDAA//-FT BELVOIR

CITY           SKY/WX    TMP DP  RH WIND       PRES   REMARKS
WASHINGTON NAT MOSUNNY   80  64  58 N5        29.99S
DULLES         MOSUNNY   75  62  64 N7        30.01S
ANDREWS AFB    MOSUNNY   77  65  67 N13       29.99R
QUANTICO       MOSUNNY   79  65  62 N10       30.00R
COLLEGE PARK*  PTSUNNY   77  64  65 NW7       29.99R
LEESBURG*      SUNNY     73  63  68 NW12      30.03R
GAITHERSBURG*    N/A    N/A N/A N/A MISG        N/A

$$

MDZ006>007-011-014-281500-
BALTIMORE METRO

CITY           SKY/WX    TMP DP  RH WIND       PRES   REMARKS
BWI AIRPORT    MOSUNNY   77  61  57 N8        29.98S
MD SCIENCE CTR   N/A     75  60  59 MISG      29.99R
MARTIN STATE   MOSUNNY   75  64  69 NW13      29.99R
ANNAPOLIS      SUNNY     76  64  66 N10       29.97S
FORT MEADE*    MOSUNNY   77  63  61 NW8       30.01S

$$

MDZ012-015-019>023-281500-
MARYLAND EASTERN SHORE

CITY           SKY/WX    TMP DP  RH WIND       PRES   REMARKS
OCEAN CITY     MOSUNNY   80  67  64 N8        29.93R
SALISBURY      SUNNY     80  67  64 N12       29.94R
BAY BRIDGE AP*   N/A     75  63  64 N9        29.98R
CAMBRIDGE*     SUNNY     79  63  57 N9        29.96R
EASTON*        MOSUNNY   79  64  61 N10       30.00R

$$

MDZ017>025-281500-
SOUTHERN MARYLAND

CITY           SKY/WX    TMP DP  RH WIND       PRES   REMARKS
PATUXENT RIVER PTSUNNY   77  66  68 N14       29.97R
ST INIGOES     PTSUNNY   79  66  64 VRB3      29.96R
LEONARDTOWN*   PTSUNNY   77  64  65 NW7       29.99R

$$

MDZ003>005-281500-
NORTH CENTRAL MARYLAND

CITY           SKY/WX    TMP DP  RH WIND       PRES   REMARKS
FREDERICK*     MOSUNNY   75  64  69 N9        30.04S
HAGERSTOWN APT MOSUNNY   71  58  63 NW14      30.04R
WESTMINSTER*   MOSUNNY   70  63  78 N6        30.02R

$$

MDZ501>502-281500-
WESTERN MARYLAND

CITY           SKY/WX    TMP DP  RH WIND       PRES   REMARKS
OAKLAND*       MOSUNNY   59 N/A N/A NW7       30.15R
CUMBERLAND*    SUNNY     75  55  50 N10       30.10S

$$

VAZ025>031-281500-
SHENANDOAH VALLEY

CITY           SKY/WX    TMP DP  RH WIND       PRES   REMARKS
WINCHESTER*    SUNNY     73  59  60 NW10      30.04S
STAUNTON*      SUNNY     77  67  70 CALM      30.06S

$$

WVZ021-048>050-054>055-281500-
EASTERN WEST VIRGINIA PANHANDLE

CITY           SKY/WX    TMP DP  RH WIND       PRES   REMARKS
MARTINSBURG    MOSUNNY   74  57  55 N9        30.05R
PETERSBURG*    NOT AVBL

$$

VAZ036>039-050-281500-
CENTRAL FOOTHILLS

CITY           SKY/WX    TMP DP  RH WIND       PRES   REMARKS
CHARLOTTESVILL SUNNY     81  67  62 NW6       30.00S
ORANGE*        SUNNY     79  68  69 N8        30.02R

$$

VAZ055>057-281500-
NORTH AND CENTRAL PIEDMONT

CITY           SKY/WX    TMP DP  RH WIND       PRES   REMARKS
FREDERICKSBRG* SUNNY     80  65  59 N12G18    29.98S
STAFFORD*      SUNNY     77  63  61 N13G18    30.04R

$$

NCZ024-NYZ072-PAZ021-071-VAZ022-071-281500-
OTHER REGIONAL OBSERVATIONS

CITY           SKY/WX    TMP DP  RH WIND       PRES   REMARKS
NEW YORK CITY  SUNNY     72  54  53 VRB5      29.94S
PHILADELPHIA   MOSUNNY   74  54  49 NW14      29.95S
PITTSBURGH     MOSUNNY   66  55  67 N9        30.13S
ROANOKE        PTSUNNY   78  67  68 W3        30.07S
RICHMOND       CLOUDY    83  68  60 N13       29.98R
RALEIGH        MOSUNNY   78  66  66 NW5       30.01R

$$

ANZ530>537-281500-
MARINE OBSERVATIONS

STATION/POSITION TIME  TEMP    WIND        PRES
                       AIR SEA DIR/SP/G
                 (UTC) (F)     (DEG/KT/KT) (MB)
THOMAS PT LIGHT  1400   74 78  340/ 13/ 14 1015.7R
BALT KEY BRIDGE  1400   79     310/ 10/ 12 1015.1R
COVE POINT       1400   75      10/ 13/ 19 1014.7R
LEWISETTA        1400   78 79  350/  8/ 11 1014.3R
SOLOMONS ISLAND  1400      80                N/A
PINEY POINT      1400           20/ 11/ 12   N/A

$$




USA.gov is the U.S. government's official web portal to all federal, state and local government web resources and services.